[[{"header":{"parameterUnit":"m.s-1","parameterCategory":2,"la1":30.2991,"la2":30.254,"lo1":-89.0895,"lo2":-89.0444,"dy":0.0017,"dx":0.0017,"nx":28,"ny":28,"refTime":"2025-12-29T09:00:00:Z","depth":"0","parameterNumber":2,"parameterNumberName":"U-component_of_CURRENTS"},"data":[0,0,0,0,0,0,0,0,0,0,0,0,0,0,0,0,0,0,0,0,0,0,0,0,0,0,0,0,0,0,0,0,0,0,0,0,0,0,0,0,0,0,0,0,0,0,0,0,0,0,0,0,0,0,0,0,0,0,0.1734,0.1734,0,0.1721,0.1721,0.172,0.1694,0.1694,0.1694,0.1694,0.1661,0.166,0.166,0,0,0,0,0,0,0,0,0,0,0,0,0,0.1726,0.1726,0.1734,0.1734,0.1734,0.1721,0.1721,0.172,0.1694,0.1694,0.1694,0.1693,0.1661,0.166,0.166,0,0,0,0,0,0,0,0,0,0,0,0,0,0.172,0.1727,0.1734,0.1722,0.1721,0.1721,0.1721,0.172,0.1694,0.1694,0.1694,0.1693,0.1662,0.1661,0.166,0.166,0,0,0.1657,0.1656,0,0,0,0,0,0,0,0,0.1721,0.172,0.1724,0.1723,0.1722,0.1712,0.1706,0.17,0.1694,0.1701,0.1694,0.1693,0.1678,0.1676,0.167,0.1659,0.1657,0.1657,0.1656,0.1655,0.1655,0,0,0,0,0,0,0,0.1721,0.1721,0.1726,0.1724,0.1723,0.1714,0.1713,0.1705,0.1689,0.1701,0.1699,0.1703,0.1677,0.1671,0.1669,0.1657,0.1657,0.1656,0.1655,0.1655,0.1642,0.1642,0,0,0,0,0,0,0.173,0.1721,0.1726,0.1725,0.1724,0.1715,0.1713,0.1713,0.169,0.1687,0.1703,0.1702,0.1673,0.167,0.1668,0.167,0.1655,0.1655,0.1654,0.1641,0.1642,0.1642,0,0,0,0,0,0,0.173,0.173,0.1727,0.1726,0.1725,0.1716,0.1715,0.1713,0.1707,0.1693,0.1689,0.1701,0.1673,0.1669,0.1661,0.1668,0.1654,0.1653,0.1641,0.1642,0.1642,0.1673,0,0,0,0,0,0,0.1729,0.173,0.1732,0.1726,0.1726,0.1728,0.1716,0.1713,0.1712,0.171,0.169,0.1686,0.1672,0.1663,0.1661,0.1667,0.1652,0.1641,0.1641,0.1642,0.1671,0.1674,0.1676,0,0,0,0,0,0.1729,0.1732,0.1732,0.1733,0.1729,0.1728,0.1727,0.1717,0.1712,0.171,0.1697,0.1687,0.1664,0.1662,0.1659,0.1666,0.1641,0.1641,0.1642,0.167,0.1673,0.1676,0,0,0,0,0,0,0.173,0.173,0.173,0.1733,0.1733,0.1725,0.1725,0.1721,0.1709,0.1707,0.1689,0.1685,0.1683,0.1669,0.1668,0.1663,0.1651,0.1651,0.1674,0.1676,0.1679,0.1691,0.1652,0,0,0,0,0,0.1733,0.1733,0.1735,0.1737,0.1739,0.1734,0.1733,0.1728,0.172,0.1714,0.1702,0.1689,0.1683,0.1676,0.1667,0.1663,0.1669,0.1665,0.1668,0.167,0.1678,0.1692,0.1697,0.1644,0.1644,0.1644,0,0,0.1734,0.1735,0.1735,0.1738,0.1736,0.174,0.1731,0.1733,0.1734,0.1713,0.1708,0.17,0.1685,0.1681,0.1679,0.167,0.1689,0.1671,0.1673,0.168,0.1693,0.1699,0.1703,0.1644,0.1644,0.1644,0,0,0.1739,0.1739,0.1742,0.1743,0.1748,0.1746,0.1749,0.1745,0.1741,0.1739,0.1727,0.1724,0.1707,0.1701,0.1696,0.1707,0.1705,0.1701,0.172,0.1734,0.1739,0.1743,0.1765,0.1771,0.1699,0.1699,0.1699,0,0.1743,0.1746,0.1743,0.1748,0.1753,0.1751,0.1758,0.1755,0.1748,0.1752,0.1741,0.1734,0.172,0.1724,0.1725,0.1714,0.1724,0.171,0.1739,0.1743,0.1747,0.1768,0.1774,0.17,0.17,0.17,0.17,0,0.1749,0.1754,0.1757,0.1762,0.1765,0.1772,0.1773,0.1776,0.1774,0.1773,0.178,0.1765,0.1764,0.1756,0.1742,0.1761,0.176,0.1744,0.1734,0.1754,0.1775,0.1781,0.1702,0.1702,0.1701,0.1701,0,0,0.1757,0.1761,0.1763,0.1769,0.1775,0.1779,0.1788,0.1799,0.1815,0.1805,0.1827,0.1809,0.1809,0.1803,0.1789,0.1795,0.1828,0.1781,0.1781,0.1808,0.1868,0.1886,0.1894,0.1817,0.1818,0.1819,0.1875,0,0.1767,0.1777,0.1777,0.179,0.1798,0.1802,0.1813,0.1822,0.1832,0.1851,0.1844,0.1857,0.1824,0.1832,0.1832,0.1834,0.1844,0.1815,0.184,0.1841,0.1859,0.1902,0.1939,0.1993,0.188,0.1881,0.1882,0,0.1776,0.1782,0.1794,0.181,0.1815,0.1823,0.1852,0.1862,0.1887,0.1899,0.1911,0.191,0.1922,0.1892,0.1907,0.189,0.1883,0.1879,0.1881,0.1892,0.187,0.1952,0.2008,0.1999,0.1891,0.189,0.189,0,0.1784,0.1797,0.1807,0.181,0.1826,0.1837,0.185,0.1876,0.19,0.1937,0.1965,0.1972,0.199,0.1981,0.1968,0.1943,0.1991,0.1954,0.1964,0.1966,0.2,0.2003,0.2056,0.1968,0.1968,0.1968,0.1968,0,0.1794,0.1804,0.1811,0.1816,0.1839,0.1846,0.1882,0.1902,0.1944,0.1981,0.199,0.2027,0.2013,0.2032,0.2005,0.2018,0.2022,0.1987,0.1987,0.2012,0.2015,0.2009,0.1978,0.197,0.1969,0.1969,0.1969,0,0.1799,0.1803,0.1817,0.1833,0.1841,0.1857,0.1899,0.1927,0.1969,0.2022,0.2039,0.2084,0.2115,0.2104,0.2109,0.2078,0.2056,0.2076,0.2113,0.2116,0.2104,0.2073,0.2045,0.1977,0.2103,0.2104,0.2105,0,0.1801,0.1808,0.1827,0.1835,0.1842,0.1868,0.1889,0.1935,0.1969,0.2054,0.208,0.2139,0.218,0.2212,0.2194,0.2187,0.2099,0.219,0.2141,0.2131,0.2096,0.2004,0.1939,0.2203,0.2205,0.2206,0.2207,0,0.1804,0.181,0.1818,0.1835,0.1853,0.1877,0.1911,0.1946,0.2003,0.2062,0.2138,0.2186,0.225,0.2276,0.2275,0.2264,0.215,0.2214,0.2198,0.2183,0.2092,0.2018,0.2138,0.2218,0.2216,0.2216,0.2215,0.2215,0.1803,0.1805,0.1811,0.1826,0.1845,0.1864,0.1877,0.1934,0.1993,0.2077,0.2149,0.2251,0.2334,0.2358,0.2313,0.2318,0.2215,0.2288,0.2254,0.2163,0.2087,0.2234,0.2309,0.2309,0.2308,0.2308,0.2308,0,0.1784,0.1784,0.18,0.1803,0.1807,0.1829,0.1869,0.1887,0.1944,0.2081,0.2161,0.2335,0.2394,0.2424,0.244,0.2374,0.2263,0.2335,0.223,0.2159,0.232,0.2317,0.2403,0.2403,0.2403,0.2403,0.2403,0.2403,0.177,0.1761,0.1764,0.1751,0.1757,0.1748,0.1761,0.1817,0.191,0.2056,0.2191,0.2293,0.2428,0.2541,0.2507,0.2454,0.2258,0.2248,0.2132,0.2294,0.2287,0.228,0.2271,0.2347,0.2347,0.1953,0.195,0.1948]},{"header":{"parameterUnit":"m.s-1","parameterCategory":2,"la1":30.2991,"la2":30.254,"lo1":-89.0895,"lo2":-89.0444,"dy":0.0017,"dx":0.0017,"nx":28,"ny":28,"refTime":"2025-12-29T09:00:00:Z","depth":"0","parameterNumber":3,"parameterNumberName":"V-component_of_CURRENTS"},"data":[0,0,0,0,0,0,0,0,0,0,0,0,0,0,0,0,0,0,0,0,0,0,0,0,0,0,0,0,0,0,0,0,0,0,0,0,0,0,0,0,0,0,0,0,0,0,0,0,0,0,0,0,0,0,0,0,0,0,-0.0234,-0.0234,0,-0.0247,-0.0247,-0.0247,-0.0264,-0.0265,-0.0265,-0.0265,-0.0274,-0.0274,-0.0274,0,0,0,0,0,0,0,0,0,0,0,0,0,-0.0236,-0.0236,-0.0234,-0.0234,-0.0235,-0.0247,-0.0247,-0.0247,-0.0264,-0.0265,-0.0265,-0.0266,-0.0274,-0.0274,-0.0274,0,0,0,0,0,0,0,0,0,0,0,0,0,-0.024,-0.0236,-0.0234,-0.0245,-0.0246,-0.0247,-0.0247,-0.0247,-0.0264,-0.0265,-0.0265,-0.0266,-0.0274,-0.0274,-0.0274,-0.0263,0,0,-0.0274,-0.0274,0,0,0,0,0,0,0,0,-0.024,-0.024,-0.0243,-0.0244,-0.0246,-0.0255,-0.0251,-0.0252,-0.0264,-0.0257,-0.0265,-0.0266,-0.0267,-0.0268,-0.0269,-0.0264,-0.0264,-0.0274,-0.0274,-0.0274,-0.0274,0,0,0,0,0,0,0,-0.024,-0.024,-0.0239,-0.0243,-0.0245,-0.0253,-0.0254,-0.0251,-0.0259,-0.0258,-0.0259,-0.0261,-0.0268,-0.0269,-0.0269,-0.0264,-0.0274,-0.0274,-0.0274,-0.0274,-0.0252,-0.0251,0,0,0,0,0,0,-0.0238,-0.0239,-0.0238,-0.0239,-0.0244,-0.0253,-0.0254,-0.0251,-0.0259,-0.0261,-0.026,-0.0262,-0.0269,-0.0269,-0.0269,-0.025,-0.0274,-0.0274,-0.0274,-0.0252,-0.0251,-0.0251,0,0,0,0,0,0,-0.0238,-0.0237,-0.0238,-0.024,-0.0241,-0.0252,-0.0249,-0.0251,-0.0251,-0.0261,-0.0263,-0.0259,-0.0269,-0.027,-0.0261,-0.0251,-0.0274,-0.0274,-0.0253,-0.0252,-0.0251,-0.0215,0,0,0,0,0,0,-0.0238,-0.0237,-0.0232,-0.024,-0.0241,-0.0232,-0.0249,-0.0251,-0.0252,-0.0254,-0.026,-0.0262,-0.027,-0.0261,-0.0261,-0.0251,-0.0273,-0.0253,-0.0252,-0.0251,-0.0217,-0.0213,-0.021,0,0,0,0,0,-0.0237,-0.0226,-0.0231,-0.0231,-0.0234,-0.0232,-0.0232,-0.0242,-0.0251,-0.0245,-0.025,-0.0261,-0.0255,-0.026,-0.026,-0.025,-0.0254,-0.0253,-0.0252,-0.0219,-0.0214,-0.021,0,0,0,0,0,0,-0.0223,-0.0227,-0.0233,-0.0223,-0.0226,-0.0235,-0.0229,-0.0238,-0.0237,-0.0238,-0.0251,-0.0252,-0.0242,-0.0249,-0.0255,-0.0241,-0.0258,-0.0256,-0.0233,-0.0228,-0.0225,-0.0222,-0.0273,0,0,0,0,0,-0.0218,-0.021,-0.0217,-0.0208,-0.0208,-0.0218,-0.0218,-0.0225,-0.0228,-0.0228,-0.0234,-0.0238,-0.0237,-0.0235,-0.0236,-0.0224,-0.0243,-0.0219,-0.0216,-0.0213,-0.021,-0.0226,-0.0224,-0.0247,-0.0247,-0.0247,0,0,-0.0211,-0.0211,-0.0207,-0.0205,-0.0207,-0.0198,-0.0219,-0.0214,-0.0207,-0.0228,-0.0216,-0.0224,-0.0231,-0.022,-0.0216,-0.0225,-0.0217,-0.0211,-0.0209,-0.0208,-0.0225,-0.0223,-0.0221,-0.0246,-0.0246,-0.0247,0,0,-0.0189,-0.0191,-0.0176,-0.0174,-0.0175,-0.018,-0.0178,-0.0183,-0.0185,-0.0177,-0.019,-0.0192,-0.0189,-0.0193,-0.0194,-0.0171,-0.0198,-0.0172,-0.0151,-0.0166,-0.0165,-0.0164,-0.0188,-0.0189,-0.0171,-0.0171,-0.0171,0,-0.0181,-0.0163,-0.0171,-0.0156,-0.015,-0.017,-0.0152,-0.0154,-0.0157,-0.0155,-0.0167,-0.0169,-0.0176,-0.0165,-0.0159,-0.0163,-0.018,-0.0166,-0.0162,-0.0161,-0.0161,-0.0186,-0.0188,-0.0169,-0.0169,-0.0169,-0.0169,0,-0.0147,-0.0134,-0.0123,-0.011,-0.0105,-0.0093,-0.0098,-0.0095,-0.0104,-0.011,-0.0105,-0.012,-0.0122,-0.0126,-0.0135,-0.013,-0.0148,-0.0156,-0.0173,-0.0156,-0.0184,-0.0187,-0.0166,-0.0167,-0.0167,-0.0168,0,0,-0.0128,-0.0104,-0.01,-0.0084,-0.0079,-0.007,-0.0057,-0.005,-0.0038,-0.0053,-0.0043,-0.0051,-0.0069,-0.0072,-0.0088,-0.0103,-0.0117,-0.0126,-0.0127,-0.0151,-0.0159,-0.0195,-0.0201,-0.0126,-0.0126,-0.0126,-0.0182,0,-0.0099,-0.0058,-0.0057,-0.0021,-0.0,-0.0011,0.0004,0.0007,0.0003,0.0007,-0.0019,-0.0014,-0.0045,-0.0046,-0.0066,-0.01,-0.0121,-0.0101,-0.0172,-0.0174,-0.0208,-0.0204,-0.0239,-0.0294,-0.0185,-0.0186,-0.0186,0,-0.0066,-0.0042,-0.0001,0.0029,0.0037,0.0051,0.0072,0.0085,0.0081,0.0076,0.0064,0.004,0.0019,-0.0011,-0.0072,-0.0059,-0.0106,-0.0139,-0.0143,-0.0189,-0.0214,-0.0293,-0.0303,-0.0461,-0.019,-0.019,-0.019,0,-0.0041,-0.0003,0.0033,0.0044,0.0071,0.0085,0.0098,0.0105,0.0129,0.012,0.0128,0.0089,0.0074,0.0011,-0.0067,-0.0068,-0.0141,-0.0152,-0.0231,-0.0234,-0.0285,-0.0292,-0.0456,-0.0197,-0.0197,-0.0197,-0.0197,0,-0.0007,0.0022,0.0048,0.007,0.0115,0.0118,0.0163,0.0167,0.0182,0.0215,0.0166,0.0174,0.008,0.0025,-0.0053,-0.0154,-0.0134,-0.0229,-0.025,-0.0274,-0.0279,-0.0435,-0.0514,-0.0199,-0.0199,-0.0198,-0.0198,0,0.0022,0.0036,0.0082,0.0116,0.0131,0.0164,0.0214,0.0248,0.0248,0.0287,0.0285,0.024,0.0162,0.0058,-0.0048,-0.0132,-0.0325,-0.0265,-0.0294,-0.0316,-0.0537,-0.0611,-0.0758,-0.0864,-0.0363,-0.0364,-0.0365,0,0.0042,0.0069,0.0122,0.0156,0.0175,0.0224,0.0265,0.0283,0.0325,0.0331,0.0356,0.0286,0.0246,0.0064,-0.0101,-0.0258,-0.038,-0.0393,-0.0402,-0.0562,-0.066,-0.0683,-0.0764,-0.0459,-0.046,-0.0462,-0.0463,0,0.0086,0.0101,0.0143,0.0211,0.026,0.0319,0.0375,0.0417,0.044,0.0458,0.0464,0.0426,0.0238,0.0058,-0.0167,-0.0287,-0.0531,-0.0426,-0.0585,-0.0747,-0.079,-0.0897,-0.0416,-0.0475,-0.0474,-0.0473,-0.0472,-0.0472,0.0122,0.0158,0.0211,0.0277,0.0335,0.0406,0.0457,0.0507,0.0563,0.0578,0.0542,0.0479,0.0209,-0.0108,-0.0288,-0.066,-0.0632,-0.0768,-0.0844,-0.0851,-0.0963,-0.0514,-0.0598,-0.0598,-0.0597,-0.0597,-0.0597,0,0.0169,0.0211,0.0275,0.0351,0.0419,0.0439,0.0527,0.0565,0.0621,0.0611,0.0591,0.0386,0.0062,-0.0269,-0.0733,-0.101,-0.1111,-0.1179,-0.1239,-0.1303,-0.0903,-0.0919,-0.1085,-0.1085,-0.1085,-0.1085,-0.1084,-0.1084,0.0197,0.0266,0.0296,0.0409,0.0463,0.0543,0.0592,0.063,0.0636,0.0584,0.05,0.041,0.0035,-0.0664,-0.125,-0.1389,-0.1626,-0.165,-0.1767,-0.1514,-0.1481,-0.145,-0.1485,-0.1767,-0.1768,-0.214,-0.2144,-0.2147]}],[{"header":{"parameterUnit":"m.s-1","parameterCategory":2,"la1":30.2991,"la2":30.254,"lo1":-89.0895,"lo2":-89.0444,"dy":0.0017,"dx":0.0017,"nx":28,"ny":28,"refTime":"2025-12-29T09:00:00:Z","depth":"2","parameterNumber":2,"parameterNumberName":"U-component_of_CURRENTS"},"data":[0,0,0,0,0,0,0,0,0,0,0,0,0,0,0,0,0,0,0,0,0,0,0,0,0,0,0,0,0,0,0,0,0,0,0,0,0,0,0,0,0,0,0,0,0,0,0,0,0,0,0,0,0,0,0,0,0,0,0.1711,0.1711,0,0.1699,0.1698,0.1698,0.1673,0.1673,0.1672,0.1672,0.164,0.164,0.1639,0,0,0,0,0,0,0,0,0,0,0,0,0,0.1704,0.1704,0.1711,0.1711,0.1711,0.1699,0.1698,0.1698,0.1673,0.1673,0.1672,0.1672,0.1641,0.164,0.1639,0,0,0,0,0,0,0,0,0,0,0,0,0,0.1698,0.1704,0.1711,0.17,0.1699,0.1699,0.1698,0.1697,0.1673,0.1673,0.1672,0.1672,0.1641,0.164,0.1639,0.1639,0,0,0.1636,0.1636,0,0,0,0,0,0,0,0,0.1698,0.1698,0.1701,0.1701,0.17,0.169,0.1684,0.1678,0.1673,0.1679,0.1672,0.1672,0.1657,0.1655,0.1649,0.1637,0.1636,0.1636,0.1635,0.1635,0.1635,0,0,0,0,0,0,0,0.1698,0.1698,0.1703,0.1702,0.1701,0.1692,0.1691,0.1682,0.1668,0.1679,0.1678,0.1682,0.1656,0.165,0.1648,0.1636,0.1636,0.1635,0.1634,0.1634,0.1621,0.1621,0,0,0,0,0,0,0.1707,0.1698,0.1703,0.1703,0.1702,0.1693,0.1691,0.1691,0.1668,0.1665,0.1682,0.168,0.1652,0.1649,0.1647,0.1649,0.1635,0.1634,0.1633,0.1621,0.1621,0.1621,0,0,0,0,0,0,0.1707,0.1708,0.1704,0.1703,0.1702,0.1694,0.1693,0.1691,0.1686,0.1671,0.1667,0.168,0.1652,0.1648,0.1641,0.1648,0.1633,0.1633,0.162,0.1621,0.1621,0.1652,0,0,0,0,0,0,0.1707,0.1707,0.171,0.1704,0.1703,0.1705,0.1694,0.1691,0.169,0.1688,0.1669,0.1665,0.1651,0.1642,0.164,0.1646,0.1632,0.162,0.1621,0.1621,0.1651,0.1653,0.1656,0,0,0,0,0,0.1706,0.1709,0.171,0.1711,0.1706,0.1706,0.1704,0.1695,0.169,0.1689,0.1676,0.1666,0.1643,0.1642,0.1639,0.1645,0.162,0.162,0.1621,0.1649,0.1653,0.1656,0,0,0,0,0,0,0.1707,0.1707,0.1707,0.171,0.1711,0.1703,0.1703,0.1699,0.1688,0.1686,0.1668,0.1664,0.1662,0.1649,0.1647,0.1642,0.163,0.163,0.1653,0.1656,0.1658,0.1671,0.1631,0,0,0,0,0,0.171,0.1711,0.1712,0.1715,0.1717,0.1712,0.1711,0.1706,0.1698,0.1693,0.1681,0.1669,0.1662,0.1655,0.1647,0.1642,0.1648,0.1644,0.1647,0.1649,0.1657,0.1671,0.1676,0.1623,0.1623,0.1623,0,0,0.1712,0.1713,0.1713,0.1715,0.1714,0.1718,0.1709,0.1711,0.1712,0.1692,0.1687,0.1679,0.1664,0.166,0.1658,0.1649,0.1669,0.165,0.1652,0.1659,0.1673,0.1678,0.1683,0.1623,0.1623,0.1623,0,0,0.1716,0.1717,0.172,0.1721,0.1726,0.1724,0.1727,0.1723,0.1719,0.1718,0.1706,0.1704,0.1687,0.1681,0.1675,0.1687,0.1684,0.1681,0.17,0.1714,0.1718,0.1723,0.1744,0.175,0.1678,0.1678,0.1678,0,0.1721,0.1724,0.1721,0.1726,0.1731,0.1729,0.1736,0.1733,0.1726,0.173,0.172,0.1714,0.1699,0.1703,0.1704,0.1694,0.1703,0.169,0.1718,0.1722,0.1726,0.1747,0.1753,0.168,0.168,0.1679,0.1679,0,0.1727,0.1732,0.1735,0.174,0.1743,0.175,0.1751,0.1754,0.1753,0.1752,0.1759,0.1744,0.1743,0.1736,0.1721,0.174,0.1739,0.1724,0.1713,0.1734,0.1754,0.176,0.1682,0.1681,0.1681,0.1681,0,0,0.1735,0.1739,0.1741,0.1747,0.1753,0.1757,0.1766,0.1777,0.1793,0.1783,0.1805,0.1788,0.1788,0.1782,0.1768,0.1774,0.1807,0.176,0.176,0.1787,0.1847,0.1865,0.1873,0.1796,0.1797,0.1798,0.1854,0,0.1745,0.1755,0.1755,0.1768,0.1776,0.178,0.1791,0.18,0.181,0.1829,0.1822,0.1835,0.1803,0.1811,0.1811,0.1814,0.1823,0.1794,0.1819,0.182,0.1837,0.188,0.1651,0.1683,0.1859,0.186,0.1861,0,0.1755,0.176,0.1772,0.1788,0.1793,0.1801,0.183,0.184,0.1865,0.1878,0.189,0.1889,0.1901,0.1871,0.1886,0.187,0.1862,0.1858,0.186,0.1871,0.1848,0.1689,0.1687,0.1871,0.187,0.1869,0.1869,0,0.1763,0.1776,0.1786,0.1789,0.1804,0.1816,0.1828,0.1854,0.1878,0.1915,0.1944,0.1951,0.1969,0.1959,0.1947,0.1922,0.197,0.1933,0.1942,0.1944,0.1752,0.1735,0.1947,0.1947,0.1946,0.1946,0.1946,0,0.1773,0.1783,0.179,0.1794,0.1818,0.1825,0.1861,0.188,0.1923,0.1959,0.1968,0.2005,0.1992,0.201,0.1984,0.1996,0.2,0.1965,0.1965,0.1758,0.1742,0.1901,0.1894,0.1948,0.1948,0.1948,0.1947,0,0.1778,0.1782,0.1796,0.1812,0.182,0.1836,0.1878,0.1906,0.1948,0.2001,0.2018,0.2062,0.2093,0.2082,0.2086,0.2056,0.2056,0.2053,0.1824,0.1797,0.2011,0.2005,0.2077,0.2079,0.208,0.208,0.2081,0,0.178,0.1787,0.1806,0.1815,0.1821,0.1848,0.1869,0.1914,0.1948,0.2032,0.2058,0.2116,0.2143,0.2175,0.2087,0.2059,0.2108,0.189,0.1805,0.2035,0.2027,0.202,0.2014,0.1553,0.155,0.1547,0.1544,0,0.1783,0.179,0.1797,0.1815,0.1833,0.1857,0.189,0.1925,0.1981,0.2024,0.21,0.2134,0.2135,0.2,0.1971,0.1926,0.1877,0.1835,0.2116,0.158,0.1552,0.1541,0.1549,0.1518,0.152,0.1522,0.1524,0.1525,0.1782,0.1785,0.1791,0.1806,0.1825,0.1843,0.1856,0.1847,0.1882,0.185,0.1995,0.1914,0.1911,0.1722,0.1683,0.1628,0.176,0.167,0.1673,0.1681,0.1635,0.1613,0.1581,0.1584,0.1587,0.1589,0.1591,0,0.1744,0.1764,0.178,0.1782,0.1759,0.1808,0.1848,0.1767,0.1717,0.1673,0.165,0.1473,0.1379,0.1397,0.1243,0.1284,0.1206,0.1273,0.1123,0.115,0.1175,0.1098,0.0904,0.0902,0.0901,0.0899,0,0,0.1726,0.1707,0.1709,0.1679,0.1703,0.1627,0.1638,0.1508,0.1417,0.1251,0.1153,0.1153,0.1282,0.1012,0.1021,0.0936,0.1029,0.0902,0.1443,0.1286,0.1308,0.1392,0.1305,0,0,0,0,0]},{"header":{"parameterUnit":"m.s-1","parameterCategory":2,"la1":30.2991,"la2":30.254,"lo1":-89.0895,"lo2":-89.0444,"dy":0.0017,"dx":0.0017,"nx":28,"ny":28,"refTime":"2025-12-29T09:00:00:Z","depth":"2","parameterNumber":3,"parameterNumberName":"V-component_of_CURRENTS"},"data":[0,0,0,0,0,0,0,0,0,0,0,0,0,0,0,0,0,0,0,0,0,0,0,0,0,0,0,0,0,0,0,0,0,0,0,0,0,0,0,0,0,0,0,0,0,0,0,0,0,0,0,0,0,0,0,0,0,0,-0.018,-0.018,0,-0.0192,-0.0192,-0.0192,-0.021,-0.0211,-0.0211,-0.0211,-0.022,-0.022,-0.022,0,0,0,0,0,0,0,0,0,0,0,0,0,-0.0182,-0.0182,-0.018,-0.018,-0.018,-0.0192,-0.0192,-0.0192,-0.021,-0.0211,-0.0211,-0.0211,-0.022,-0.022,-0.022,0,0,0,0,0,0,0,0,0,0,0,0,0,-0.0186,-0.0182,-0.018,-0.0191,-0.0192,-0.0192,-0.0192,-0.0192,-0.021,-0.0211,-0.0211,-0.0212,-0.022,-0.022,-0.022,-0.0208,0,0,-0.0219,-0.0219,0,0,0,0,0,0,0,0,-0.0186,-0.0186,-0.0189,-0.019,-0.0191,-0.02,-0.0196,-0.0197,-0.021,-0.0203,-0.0211,-0.0212,-0.0213,-0.0213,-0.0214,-0.0208,-0.0209,-0.0219,-0.0219,-0.0219,-0.0219,0,0,0,0,0,0,0,-0.0186,-0.0186,-0.0184,-0.0189,-0.0191,-0.0199,-0.02,-0.0196,-0.0204,-0.0203,-0.0205,-0.0207,-0.0214,-0.0214,-0.0214,-0.0209,-0.0219,-0.0219,-0.0219,-0.0219,-0.0196,-0.0196,0,0,0,0,0,0,-0.0184,-0.0185,-0.0184,-0.0185,-0.019,-0.0198,-0.0199,-0.0197,-0.0204,-0.0206,-0.0206,-0.0208,-0.0214,-0.0214,-0.0215,-0.0196,-0.0219,-0.0219,-0.0219,-0.0197,-0.0196,-0.0196,0,0,0,0,0,0,-0.0184,-0.0183,-0.0183,-0.0186,-0.0187,-0.0198,-0.0194,-0.0197,-0.0197,-0.0207,-0.0209,-0.0205,-0.0214,-0.0215,-0.0206,-0.0196,-0.0219,-0.0219,-0.0198,-0.0197,-0.0196,-0.0161,0,0,0,0,0,0,-0.0184,-0.0183,-0.0178,-0.0185,-0.0186,-0.0178,-0.0194,-0.0196,-0.0198,-0.02,-0.0206,-0.0208,-0.0215,-0.0206,-0.0206,-0.0197,-0.0218,-0.0198,-0.0197,-0.0196,-0.0163,-0.0159,-0.0156,0,0,0,0,0,-0.0183,-0.0172,-0.0178,-0.0178,-0.018,-0.0177,-0.0178,-0.0188,-0.0197,-0.0192,-0.0196,-0.0207,-0.0201,-0.0205,-0.0205,-0.0196,-0.0199,-0.0197,-0.0196,-0.0165,-0.016,-0.0156,0,0,0,0,0,0,-0.017,-0.0173,-0.0179,-0.0169,-0.0172,-0.018,-0.0175,-0.0184,-0.0184,-0.0185,-0.0197,-0.0198,-0.0188,-0.0195,-0.02,-0.0187,-0.0203,-0.0202,-0.0179,-0.0175,-0.0171,-0.0168,-0.0218,0,0,0,0,0,-0.0165,-0.0156,-0.0164,-0.0155,-0.0154,-0.0165,-0.0165,-0.0172,-0.0174,-0.0175,-0.018,-0.0184,-0.0183,-0.0181,-0.0181,-0.017,-0.0188,-0.0165,-0.0162,-0.0159,-0.0156,-0.0172,-0.017,-0.0192,-0.0192,-0.0192,0,0,-0.0158,-0.0158,-0.0154,-0.0152,-0.0154,-0.0145,-0.0165,-0.0161,-0.0153,-0.0175,-0.0163,-0.0171,-0.0177,-0.0166,-0.0163,-0.0171,-0.0163,-0.0158,-0.0155,-0.0154,-0.0171,-0.0169,-0.0167,-0.0191,-0.0192,-0.0192,0,0,-0.0136,-0.0139,-0.0124,-0.0122,-0.0122,-0.0127,-0.0125,-0.0131,-0.0133,-0.0124,-0.0138,-0.014,-0.0137,-0.014,-0.0141,-0.0118,-0.0145,-0.012,-0.0099,-0.0115,-0.0113,-0.0112,-0.0137,-0.0138,-0.0119,-0.0119,-0.0119,0,-0.0129,-0.0111,-0.0119,-0.0104,-0.0098,-0.0117,-0.01,-0.0102,-0.0105,-0.0103,-0.0115,-0.0117,-0.0124,-0.0112,-0.0107,-0.0111,-0.0128,-0.0114,-0.0111,-0.011,-0.0109,-0.0135,-0.0137,-0.0117,-0.0117,-0.0117,-0.0117,0,-0.0095,-0.0082,-0.0071,-0.0059,-0.0054,-0.0041,-0.0047,-0.0044,-0.0053,-0.0059,-0.0054,-0.0068,-0.0071,-0.0075,-0.0083,-0.0079,-0.0097,-0.0105,-0.0121,-0.0105,-0.0133,-0.0136,-0.0114,-0.0115,-0.0115,-0.0116,0,0,-0.0077,-0.0052,-0.0049,-0.0033,-0.0028,-0.0018,-0.0006,0.0002,0.0013,-0.0002,0.0008,-0.0,-0.0019,-0.0022,-0.0038,-0.0052,-0.0067,-0.0075,-0.0077,-0.01,-0.011,-0.0146,-0.0152,-0.0076,-0.0076,-0.0076,-0.0133,0,-0.0049,-0.0008,-0.0006,0.003,0.005,0.004,0.0055,0.0057,0.0054,0.0058,0.0032,0.0036,0.0005,0.0003,-0.0017,-0.0051,-0.0072,-0.0052,-0.0122,-0.0124,-0.0158,-0.0155,-0.0069,-0.0114,-0.0136,-0.0136,-0.0137,0,-0.0016,0.0008,0.005,0.0079,0.0087,0.0101,0.0122,0.0135,0.0131,0.0127,0.0114,0.009,0.0068,0.0038,-0.0023,-0.0009,-0.0057,-0.009,-0.0093,-0.014,-0.0164,-0.0133,-0.0119,-0.0141,-0.0141,-0.0141,-0.014,0,0.0009,0.0047,0.0083,0.0093,0.0121,0.0135,0.0147,0.0155,0.0179,0.0169,0.0177,0.0138,0.0123,0.006,-0.0018,-0.002,-0.0092,-0.0103,-0.0182,-0.0186,-0.0133,-0.0132,-0.0149,-0.0149,-0.0149,-0.0148,-0.0148,0,0.0042,0.0071,0.0097,0.0119,0.0164,0.0167,0.0211,0.0216,0.0231,0.0264,0.0215,0.0223,0.0128,0.0073,-0.0004,-0.0105,-0.0086,-0.0181,-0.0201,-0.012,-0.0117,-0.0155,-0.0154,-0.0151,-0.015,-0.015,-0.0149,0,0.007,0.0084,0.013,0.0164,0.018,0.0212,0.0262,0.0296,0.0295,0.0334,0.0333,0.0287,0.0209,0.0105,0.0,-0.0084,-0.0177,-0.0218,-0.0125,-0.0134,-0.0265,-0.0262,-0.0312,-0.0314,-0.0316,-0.0317,-0.0318,0,0.009,0.0117,0.0169,0.0203,0.0222,0.0271,0.0311,0.033,0.0372,0.0378,0.0402,0.0332,0.0298,0.0116,-0.0008,-0.0154,-0.0204,-0.022,-0.0212,-0.0266,-0.0281,-0.0276,-0.0272,-0.0126,-0.0126,-0.0125,-0.0125,0,0.0133,0.0148,0.019,0.0257,0.0305,0.0366,0.0421,0.0463,0.0486,0.0511,0.0517,0.0484,0.0331,0.0218,0.0006,-0.0088,-0.0192,-0.0218,-0.0281,-0.0109,-0.0099,-0.0111,-0.0111,-0.012,-0.0121,-0.0121,-0.0121,-0.0121,0.0168,0.0203,0.0256,0.0322,0.038,0.0451,0.0502,0.059,0.0657,0.0729,0.0646,0.0632,0.0458,0.0243,0.005,-0.0147,-0.0152,-0.0227,-0.0224,-0.0223,-0.0202,-0.0196,-0.0233,-0.0234,-0.0234,-0.0235,-0.0236,0,0.0232,0.0255,0.0319,0.0395,0.0484,0.0483,0.0572,0.0675,0.079,0.0834,0.0858,0.0722,0.0562,0.0334,0.0084,-0.011,-0.0092,-0.0205,-0.0121,-0.0123,-0.0126,-0.0098,-0.0102,-0.0102,-0.0103,-0.0103,0,0,0.0263,0.034,0.037,0.0494,0.0531,0.0668,0.0718,0.0868,0.0951,0.1038,0.1019,0.097,0.0657,0.049,0.0243,0.0071,0.001,0.0034,-0.0043,0.0086,0.0086,-0.0098,-0.0053,0,0,0,0,0]}],[{"header":{"parameterUnit":"m.s-1","parameterCategory":2,"la1":30.2991,"la2":30.254,"lo1":-89.0895,"lo2":-89.0444,"dy":0.0017,"dx":0.0017,"nx":28,"ny":28,"refTime":"2025-12-29T09:00:00:Z","depth":"4","parameterNumber":2,"parameterNumberName":"U-component_of_CURRENTS"},"data":[0,0,0,0,0,0,0,0,0,0,0,0,0,0,0,0,0,0,0,0,0,0,0,0,0,0,0,0,0,0,0,0,0,0,0,0,0,0,0,0,0,0,0,0,0,0,0,0,0,0,0,0,0,0,0,0,0,0,0.0833,0.0833,0,0.0855,0.0856,0.0856,0.087,0.087,0.087,0.0871,0.0902,0.0903,0.0904,0,0,0,0,0,0,0,0,0,0,0,0,0,0.0804,0.0805,0.0833,0.0833,0.0834,0.0855,0.0856,0.0856,0.087,0.087,0.0871,0.0871,0.0902,0.0903,0.0904,0,0,0,0,0,0,0,0,0,0,0,0,0,0.0819,0.0805,0.0833,0.0845,0.0846,0.0855,0.0856,0.0856,0.087,0.087,0.0871,0.0871,0.0902,0.0903,0.0904,0.0903,0,0,0.0907,0.0907,0,0,0,0,0,0,0,0,0.0819,0.082,0.0842,0.0844,0.0845,0.0862,0.0857,0.0873,0.087,0.0859,0.0871,0.0871,0.089,0.0892,0.0894,0.0905,0.0906,0.0907,0.0907,0.0908,0.0908,0,0,0,0,0,0,0,0.0817,0.0819,0.084,0.0843,0.0845,0.085,0.0852,0.086,0.0872,0.086,0.0862,0.0866,0.0891,0.0893,0.0894,0.0907,0.0907,0.0908,0.0908,0.0909,0.0979,0.098,0,0,0,0,0,0,0.0817,0.0818,0.084,0.0841,0.0834,0.085,0.0852,0.0855,0.0872,0.0875,0.0866,0.0867,0.0891,0.0893,0.0896,0.0951,0.0908,0.0909,0.0909,0.0977,0.0979,0.098,0,0,0,0,0,0,0.0816,0.0819,0.0839,0.0832,0.0835,0.085,0.0853,0.0855,0.0878,0.0876,0.0879,0.0889,0.0891,0.0894,0.0925,0.095,0.0909,0.091,0.0976,0.0978,0.098,0.1026,0,0,0,0,0,0,0.0815,0.0818,0.0831,0.0832,0.0835,0.0859,0.0853,0.0855,0.088,0.0882,0.0897,0.0899,0.0892,0.0924,0.0926,0.095,0.0911,0.0974,0.0977,0.0979,0.1023,0.1029,0.1034,0,0,0,0,0,0.0814,0.0826,0.0832,0.0835,0.0849,0.086,0.0863,0.0874,0.0881,0.0895,0.0909,0.0899,0.0941,0.0926,0.0928,0.0953,0.0973,0.0976,0.0979,0.102,0.1028,0.1034,0,0,0,0,0,0,0.0822,0.0829,0.0835,0.085,0.0862,0.0864,0.0882,0.0888,0.0909,0.092,0.0915,0.0918,0.0955,0.095,0.0933,0.0981,0.0956,0.0959,0.0986,0.0993,0.0999,0.1002,0.0912,0,0,0,0,0,0.083,0.0842,0.0848,0.0865,0.0873,0.0883,0.0894,0.0902,0.0915,0.0926,0.0937,0.0951,0.0965,0.0976,0.0988,0.1013,0.101,0.1032,0.1038,0.1043,0.1047,0.1064,0.1071,0.099,0.099,0.099,0,0,0.0838,0.0845,0.0854,0.0868,0.088,0.0896,0.0891,0.0916,0.0935,0.0926,0.0966,0.0976,0.0978,0.1008,0.1024,0.1009,0.1067,0.1047,0.1051,0.1053,0.1068,0.1075,0.1082,0.0992,0.0991,0.0991,0,0,0.0855,0.0869,0.0884,0.0897,0.0919,0.0924,0.0937,0.0954,0.0971,0.1005,0.1005,0.1032,0.1055,0.106,0.1064,0.111,0.1099,0.1118,0.1149,0.1165,0.1171,0.1177,0.1189,0.1196,0.1119,0.1119,0.1119,0,0.0869,0.0884,0.0892,0.0909,0.0926,0.094,0.0961,0.0978,0.1005,0.1024,0.1027,0.1073,0.1077,0.1107,0.1124,0.1124,0.113,0.1119,0.1172,0.1178,0.1183,0.1194,0.12,0.1121,0.1121,0.1121,0.1121,0,0.0887,0.091,0.0923,0.0947,0.0966,0.099,0.1009,0.1038,0.1063,0.1076,0.1124,0.1134,0.116,0.1167,0.116,0.1201,0.1194,0.1179,0.1151,0.1193,0.1203,0.1209,0.1125,0.1124,0.1123,0.1123,0,0,0.0888,0.0928,0.0935,0.0955,0.099,0.1005,0.1045,0.1079,0.1113,0.1144,0.1186,0.1212,0.1224,0.123,0.123,0.1243,0.1286,0.1232,0.1231,0.124,0.1326,0.1237,0.1234,0.1282,0.1283,0.1284,0.132,0,0.0904,0.0941,0.0958,0.1001,0.1022,0.1051,0.1086,0.1122,0.1156,0.1201,0.122,0.1261,0.1245,0.127,0.1282,0.129,0.1304,0.1278,0.1288,0.1288,0.12,0.1239,0.1288,0.1324,0.1325,0.1326,0.1327,0,0.0911,0.0937,0.0981,0.103,0.1044,0.1076,0.1138,0.1172,0.123,0.1261,0.13,0.1317,0.1353,0.1333,0.1362,0.1349,0.1346,0.1343,0.1344,0.1246,0.1209,0.1272,0.1337,0.1337,0.1336,0.1335,0.1335,0,0.0898,0.0951,0.0988,0.1005,0.1064,0.1099,0.1137,0.1196,0.1234,0.1306,0.1343,0.138,0.1412,0.1416,0.141,0.1397,0.1434,0.141,0.1325,0.1319,0.1367,0.1361,0.143,0.143,0.143,0.143,0.143,0,0.0893,0.0926,0.0991,0.1011,0.1065,0.1108,0.1173,0.1217,0.1287,0.1328,0.1376,0.1406,0.1437,0.1453,0.1438,0.1399,0.1456,0.1337,0.1323,0.1387,0.1382,0.1372,0.1365,0.1431,0.1431,0.143,0.143,0,0.0867,0.0911,0.0958,0.1032,0.106,0.1101,0.1189,0.1228,0.1304,0.1361,0.1388,0.1446,0.1463,0.1474,0.1485,0.1426,0.1403,0.1374,0.1452,0.144,0.1272,0.1268,0.1284,0.1281,0.1278,0.1276,0.1275,0,0.0854,0.0878,0.0966,0.0997,0.1035,0.1104,0.1146,0.123,0.1266,0.1363,0.1377,0.1433,0.1454,0.1395,0.1418,0.1389,0.1362,0.1345,0.1296,0.1274,0.1259,0.1257,0.1256,0.1271,0.127,0.1269,0.1269,0,0.0828,0.0871,0.0909,0.0971,0.1024,0.1072,0.1136,0.1156,0.1242,0.1324,0.1325,0.1324,0.1341,0.1331,0.1322,0.1296,0.1353,0.1319,0.1323,0.1278,0.1258,0.1245,0.1247,0.1261,0.1262,0.1262,0.1263,0,0.0811,0.0828,0.0883,0.0928,0.0989,0.1009,0.1055,0.1084,0.1126,0.1223,0.1221,0.1269,0.1327,0.1284,0.1275,0.1246,0.1215,0.1159,0.1171,0.1181,0.1128,0.1087,0.103,0,0,0,0,0,0.0784,0.0791,0.0832,0.0867,0.0922,0.095,0.1029,0.1073,0.1155,0.1121,0.1165,0.1168,0.1152,0.1181,0.1125,0.1233,0.1226,0.1164,0.117,0.1214,0.1224,0.1169,0,0,0,0,0,0,0.0764,0.0797,0.0806,0.0803,0.081,0.0853,0.0896,0.0955,0.094,0.1027,0.1022,0.1086,0.1089,0.1158,0.1096,0.1104,0.1081,0.1199,0.1195,0.1209,0.1218,0.1225,0.1173,0,0,0,0,0]},{"header":{"parameterUnit":"m.s-1","parameterCategory":2,"la1":30.2991,"la2":30.254,"lo1":-89.0895,"lo2":-89.0444,"dy":0.0017,"dx":0.0017,"nx":28,"ny":28,"refTime":"2025-12-29T09:00:00:Z","depth":"4","parameterNumber":3,"parameterNumberName":"V-component_of_CURRENTS"},"data":[0,0,0,0,0,0,0,0,0,0,0,0,0,0,0,0,0,0,0,0,0,0,0,0,0,0,0,0,0,0,0,0,0,0,0,0,0,0,0,0,0,0,0,0,0,0,0,0,0,0,0,0,0,0,0,0,0,0,0.0384,0.0384,0,0.0377,0.0377,0.0377,0.0383,0.0383,0.0383,0.0383,0.0385,0.0384,0.0384,0,0,0,0,0,0,0,0,0,0,0,0,0,0.0374,0.0375,0.0384,0.0384,0.0384,0.0377,0.0377,0.0377,0.0383,0.0383,0.0383,0.0383,0.0385,0.0384,0.0384,0,0,0,0,0,0,0,0,0,0,0,0,0,0.0374,0.0375,0.0384,0.0386,0.0386,0.0377,0.0377,0.0377,0.0382,0.0383,0.0383,0.0384,0.0385,0.0384,0.0384,0.0374,0,0,0.0383,0.0383,0,0,0,0,0,0,0,0,0.0374,0.0374,0.0386,0.0386,0.0386,0.0381,0.0374,0.0376,0.0382,0.0384,0.0383,0.0384,0.0384,0.0384,0.0381,0.0374,0.0374,0.0383,0.0383,0.0383,0.0383,0,0,0,0,0,0,0,0.0374,0.0374,0.0381,0.0386,0.0386,0.0378,0.0378,0.0374,0.0382,0.0384,0.0384,0.0383,0.0384,0.0382,0.0381,0.0374,0.0383,0.0383,0.0383,0.0383,0.0345,0.0345,0,0,0,0,0,0,0.0376,0.0375,0.0381,0.0381,0.0381,0.0378,0.0378,0.0382,0.0382,0.0382,0.0383,0.0384,0.0382,0.0382,0.0381,0.037,0.0383,0.0382,0.0382,0.0346,0.0345,0.0344,0,0,0,0,0,0,0.0376,0.0377,0.0382,0.0377,0.0377,0.0378,0.0382,0.0382,0.0382,0.0381,0.0382,0.0384,0.0382,0.0382,0.0377,0.0371,0.0382,0.0382,0.0347,0.0346,0.0345,0.0348,0,0,0,0,0,0,0.0376,0.0377,0.0382,0.0378,0.0378,0.0377,0.0381,0.0382,0.0381,0.0382,0.0382,0.0382,0.0382,0.0377,0.0377,0.037,0.0382,0.0348,0.0346,0.0345,0.0349,0.0347,0.0346,0,0,0,0,0,0.0376,0.0381,0.0383,0.0383,0.0384,0.0377,0.0376,0.0377,0.0381,0.0379,0.0378,0.0382,0.0367,0.0377,0.0376,0.037,0.0349,0.0347,0.0345,0.035,0.0348,0.0346,0,0,0,0,0,0,0.0379,0.0382,0.0384,0.039,0.0384,0.0378,0.038,0.0377,0.0375,0.0378,0.0377,0.0377,0.0369,0.0365,0.0376,0.0352,0.0356,0.0354,0.036,0.0358,0.0356,0.0367,0.0382,0,0,0,0,0,0.0382,0.0389,0.0384,0.0389,0.0388,0.0383,0.0381,0.038,0.0377,0.0376,0.0374,0.0367,0.0359,0.0357,0.0349,0.034,0.0332,0.0332,0.033,0.0329,0.0335,0.0314,0.0312,0.0338,0.0338,0.0338,0,0,0.0386,0.0388,0.0392,0.0391,0.0389,0.0387,0.0383,0.0381,0.038,0.0376,0.0374,0.0364,0.0354,0.0343,0.0339,0.0342,0.0314,0.0327,0.0326,0.0333,0.0312,0.031,0.0307,0.0337,0.0337,0.0338,0,0,0.0394,0.0397,0.0404,0.04,0.0396,0.0391,0.0391,0.0383,0.038,0.0372,0.0367,0.0354,0.0343,0.0333,0.0328,0.031,0.0306,0.0303,0.0307,0.0286,0.0284,0.0282,0.026,0.0256,0.0303,0.0303,0.0303,0,0.0399,0.0409,0.0403,0.0406,0.0407,0.0394,0.0399,0.039,0.038,0.0378,0.0373,0.0348,0.0338,0.0325,0.0316,0.0308,0.0296,0.0318,0.0285,0.0283,0.0281,0.0259,0.0255,0.0303,0.0303,0.0303,0.0303,0,0.041,0.0417,0.042,0.0422,0.0419,0.042,0.0408,0.0401,0.0394,0.0385,0.0368,0.0347,0.0335,0.0321,0.0315,0.0294,0.0289,0.0286,0.0295,0.0279,0.0256,0.0252,0.0303,0.0303,0.0303,0.0303,0,0,0.0426,0.0429,0.0431,0.0438,0.043,0.0431,0.0424,0.0417,0.0419,0.0392,0.0389,0.0357,0.0344,0.0336,0.0319,0.0296,0.0265,0.0287,0.0286,0.0273,0.0216,0.0213,0.0208,0.0258,0.0257,0.0257,0.0203,0,0.0439,0.0452,0.0448,0.046,0.0468,0.0454,0.0452,0.0442,0.0429,0.0419,0.0385,0.0374,0.035,0.0344,0.0315,0.0283,0.0255,0.0279,0.0226,0.0225,0.0231,0.0204,0.0255,0.02,0.0199,0.0198,0.0198,0,0.0455,0.0463,0.0481,0.0489,0.0491,0.0494,0.0495,0.0492,0.0469,0.0458,0.0433,0.0408,0.037,0.0352,0.0283,0.0301,0.0259,0.0228,0.0225,0.0222,0.0214,0.0219,0.019,0.019,0.0191,0.0191,0.0192,0,0.0479,0.0488,0.0508,0.051,0.0512,0.0518,0.0519,0.0507,0.0513,0.0486,0.0482,0.0432,0.041,0.0351,0.028,0.0282,0.0204,0.0199,0.0153,0.0153,0.0172,0.0175,0.0147,0.0147,0.0147,0.0147,0.0147,0,0.0497,0.0514,0.0522,0.0533,0.0558,0.0548,0.0571,0.0561,0.0553,0.0561,0.0509,0.0497,0.0409,0.0353,0.0287,0.0207,0.0206,0.015,0.0138,0.0173,0.0176,0.0169,0.0172,0.0145,0.0145,0.0146,0.0146,0,0.0522,0.0527,0.0553,0.0564,0.0573,0.0592,0.0613,0.0627,0.0611,0.0618,0.061,0.0545,0.047,0.0379,0.0279,0.0221,0.0143,0.0113,0.0155,0.0146,0.0103,0.0107,0.0057,0.0057,0.0056,0.0056,0.0056,0,0.0533,0.0551,0.0584,0.0604,0.0613,0.0641,0.0664,0.0662,0.0676,0.0648,0.0651,0.0578,0.0525,0.0379,0.0281,0.0148,0.0129,0.0084,0.0091,0.01,0.0093,0.0098,0.0102,0.0055,0.0055,0.0055,0.0055,0,0.0556,0.0574,0.0595,0.0642,0.0674,0.0709,0.0735,0.0748,0.0742,0.0729,0.068,0.0593,0.0504,0.0383,0.0276,0.0182,0.0111,0.0078,0.0079,0.0085,0.0097,0.0091,0.0096,0.0053,0.0053,0.0053,0.0053,0,0.0577,0.0599,0.0633,0.0672,0.0717,0.0756,0.0769,0.0774,0.0781,0.074,0.0725,0.0617,0.0551,0.0401,0.0306,0.0209,0.0184,0.015,0.0147,0.0147,0.0188,0.0218,0.0197,0,0,0,0,0,0.059,0.0617,0.0657,0.0701,0.0748,0.0778,0.0807,0.0813,0.0806,0.0778,0.0748,0.0662,0.0503,0.0433,0.0336,0.0301,0.0173,0.0184,0.0134,0.0043,0.0045,0.0078,0,0,0,0,0,0,0.0599,0.0642,0.0659,0.0718,0.0757,0.0813,0.0836,0.0833,0.081,0.0782,0.07,0.0641,0.0492,0.0565,0.0338,0.0307,0.0261,0.0107,0.0105,0.0042,0.0044,0.0046,0.008,0,0,0,0,0]}]]